Вернуться в каталог

STARLINK-37315

АктивенСвязьSSO
NORAD 68816·PAYLOAD·🇺🇸 United States

Запущен Apr 23, 2026 с Vandenberg Space Force Base

Loading…

Ближайшие Пролёты (ближайшие 24 часа)

TLE

СвежийSource: CelesTrak SupGP

Эпоха: Sep 14, 2026, 21:13 UTC

1 68816C 26089Q   26257.88451389  .00056139  00000+0  17418-2 0  2575
2 68816  97.2852 103.7275 0001925  83.1732  94.1501 15.33425464    18

Отслеживайте STARLINK-37315 в реальном времени с AllMySat

Download on the App Store